Date,TemperatureHighF,TemperatureAvgF,TemperatureLowF,DewpointHighF,DewpointAvgF,DewpointLowF,HumidityHigh,HumidityAvg,HumidityLow,PressureMaxIn,PressureMinIn,WindSpeedMaxMPH,WindSpeedAvgMPH,GustSpeedMaxMPH,PrecipitationSumIn
2013-2-1,35.4,30.4,23.5,5.5,-0.3,-7.9,31,26,22,29.94,29.47,26,11,26,0.04
2013-2-2,32.5,26.9,20.7,13.4,-1.0,-8.2,51,30,23,30.12,29.88,19,9,19,0.04
2013-2-3,37.0,28.6,22.8,12.5,7.8,3.5,52,41,31,29.91,29.53,19,6,19,0.04
2013-2-4,33.6,27.4,23.9,8.9,0.5,-6.0,50,32,23,29.80,29.56,19,9,19,0.04
2013-2-5,30.0,26.9,24.3,14.5,2.8,-3.4,52,35,28,29.88,29.77,12,5,15,0.04
2013-2-6,41.5,33.3,28.0,19.4,11.9,-2.8,58,42,25,30.12,29.74,19,6,19,0.04
2013-2-7,35.4,27.4,22.1,1.5,-3.5,-7.5,32,25,22,30.36,30.12,15,6,15,0.04
2013-2-8,34.9,32.5,27.3,30.6,17.0,1.4,93,55,32,30.33,29.29,30,8,30,0.04
2013-2-9,31.1,31.1,31.1,30.6,30.6,30.6,98,98,98,29.15,29.15,2,2,2,0.00
2013-2-12,45.9,36.9,32.9,14.6,12.1,10.2,43,36,28,29.74,29.59,14,5,14,0.00
2013-2-13,45.1,35.2,30.2,15.6,12.2,8.4,46,38,29,29.74,29.50,11,4,11,0.00
2013-2-14,48.6,36.6,29.1,22.2,14.4,7.2,63,42,24,29.88,29.53,12,4,12,0.20
2013-2-15,52.0,39.2,29.7,28.5,19.8,10.9,60,46,29,29.91,29.80,15,6,15,0.00
2013-2-16,40.8,34.5,30.4,27.1,21.4,15.5,71,59,39,29.80,29.47,26,6,26,0.04
2013-2-17,34.0,25.0,19.6,22.9,7.5,-9.0,74,50,24,29.53,29.18,28,13,28,0.04
2013-2-18,35.4,25.1,16.5,0.2,-5.8,-10.9,31,25,22,30.03,29.53,26,11,26,0.00
2013-2-19,52.9,40.3,27.5,40.3,16.5,-5.4,77,40,23,30.03,29.44,26,8,26,0.63
2013-2-20,39.9,34.2,26.8,32.0,10.5,-3.0,80,40,23,29.65,29.41,19,9,19,0.00
2013-2-21,37.0,29.8,26.2,3.6,0.9,-2.5,32,28,22,29.97,29.62,23,9,23,0.00
2013-2-22,42.3,34.2,28.8,11.8,7.0,2.0,37,31,28,30.21,29.97,18,6,18,0.00
2013-2-23,44.8,37.1,32.0,32.4,16.8,10.3,78,45,30,30.18,29.68,25,6,25,0.20
2013-2-24,44.8,39.3,32.7,40.1,32.7,24.4,87,77,60,29.71,29.41,24,7,25,0.83
2013-2-25,47.3,35.8,30.7,26.6,17.8,8.4,78,51,27,30.09,29.71,14,3,15,0.16
2013-2-26,49.8,37.1,26.6,23.3,14.2,9.2,58,40,24,30.18,29.97,20,4,20,0.00
2013-2-27,44.8,42.5,39.0,41.7,36.1,19.1,89,79,44,29.97,29.41,37,12,37,0.71
2013-2-28,53.2,41.0,36.1,37.0,28.9,20.7,89,65,31,29.50,29.35,10,3,14,0.00